Home   Weather   Szczecin   Past weeks
Flag for Poland

Past Weather in Szczecin, Poland — Yesterday and Last 2 Weeks

Now
68 °F

Clear.


Feels Like: 68 °F
Forecast: 73 / 59 °F
Wind: 1 mph from North

Location: Szczecin Airport

Current Time: Jun 26, 2019 at 2:06:06 am

Latest Report: Jun 26, 2019 at 1:00 am


Visibility: 10 mi

Pressure: 30.12 "Hg

Humidity: 88%

Dew Point: 64 °F

Location of SzczecinLocation

Past Weather in Szczecin — Graph

°F

Szczecin Temperature Yesterday

Maximum temperature yesterday: 88 °F (at 4:00 pm)
Minimum temperature yesterday: 64 °F (at 12:00 am)
Average temperature yesterday: 75 °F

High & Low Weather Summary for the Past Weeks

 TemperatureHumidityPressure
High90 °F (Jun 12, 4:00 pm)100% (Jun 11, 3:00 am)30.30 "Hg (Jun 11, 3:00 am)
Low50 °F (Jun 17, 3:30 am)32% (Jun 24, 3:30 pm)29.68 "Hg (Jun 12, 5:00 pm)
Average70 °F68%30.02 "Hg
* Reported Jun 11 1:00 am — Jun 26 1:00 am, Szczecin. Weather by CustomWeather, © 2019

Note: Actual official high and low records may vary slightly from our data, if they occured in-between our weather recording intervals... More about our weather records

Advertising

Szczecin Weather History for the Previous 24 Hours

Scroll right to see more
 ConditionsComfort  
Time TempWeatherWind HumidityBarometerVisibility
1:00 am
Wed, Jun 26
68 °FClear.1 mph88%30.12 "Hg10 mi
12:30 am68 °FClear.2 mph88%30.12 "Hg10 mi
12:00 am70 °FClear.1 mph83%30.12 "Hg10 mi
11:30 pm
Tue, Jun 25
70 °FClear.1 mph83%30.12 "Hg10 mi
11:00 pm72 °FClear.2 mph78%30.15 "Hg10 mi
10:30 pm73 °FClear.2 mph69%30.15 "Hg10 mi
10:00 pm73 °FClear.1 mph74%30.15 "Hg10 mi
9:30 pm73 °FSunny.2 mph78%30.12 "Hg10 mi
9:00 pm77 °FSunny.1 mph69%30.15 "Hg10 mi
8:30 pm81 °FSunny.2 mph62%30.12 "Hg10 mi
8:00 pm82 °FSunny.1 mph62%30.15 "Hg10 mi
7:30 pm86 °FPassing clouds.3 mph46%30.12 "HgN/A
7:00 pm88 °FSunny.5 mph40%30.15 "Hg10 mi
6:30 pm88 °FPassing clouds.6 mph40%30.15 "HgN/A
6:00 pm86 °FPassing clouds.7 mph40%30.15 "HgN/A
5:30 pm88 °FPassing clouds.6 mph40%30.15 "HgN/A
5:00 pm88 °FPassing clouds.7 mph38%30.15 "HgN/A
4:30 pm88 °FPassing clouds.8 mph35%30.18 "HgN/A
4:00 pm88 °FSunny.7 mph40%30.18 "Hg10 mi
3:30 pm86 °FPassing clouds.9 mph40%30.18 "HgN/A
3:00 pm86 °FPassing clouds.10 mph35%30.21 "HgN/A
2:30 pm86 °FSunny.3 mph40%30.21 "Hg10 mi
2:00 pm84 °FPassing clouds.10 mph37%30.21 "HgN/A
1:30 pm84 °FPassing clouds.12 mph35%30.21 "HgN/A
1:00 pm84 °FPassing clouds.9 mph43%30.21 "HgN/A
12:30 pm82 °FPassing clouds.12 mph42%30.24 "HgN/A
12:00 pm82 °FPassing clouds.15 mph40%30.24 "HgN/A
11:30 am82 °FSunny.9 mph48%30.24 "Hg10 mi
11:00 am81 °FPassing clouds.9 mph51%30.24 "HgN/A
10:00 am77 °FPassing clouds.8 mph57%30.24 "HgN/A
9:30 am75 °FSunny.9 mph57%30.24 "Hg10 mi
9:00 am73 °FSunny.9 mph61%30.24 "Hg10 mi
8:30 am72 °FSunny.9 mph65%30.24 "Hg10 mi
8:00 am70 °FSunny.8 mph64%30.24 "Hg10 mi
7:30 am68 °FSunny.12 mph69%30.27 "Hg10 mi
7:00 am68 °FSunny.10 mph69%30.24 "Hg10 mi
6:30 am66 °FSunny.9 mph68%30.24 "Hg10 mi
6:00 am64 °FSunny.8 mph73%30.24 "Hg10 mi
5:30 am64 °FSunny.8 mph73%30.24 "Hg10 mi
5:00 am64 °FSunny.9 mph73%30.24 "Hg10 mi
4:30 am64 °FClear.10 mph73%30.24 "Hg10 mi
4:00 am64 °FClear.10 mph73%30.24 "Hg10 mi
3:30 am64 °FClear.9 mph73%30.27 "Hg10 mi
3:00 am64 °FClear.9 mph73%30.27 "Hg10 mi
2:30 am64 °FClear.9 mph68%30.27 "Hg10 mi
2:00 am64 °FClear.8 mph68%30.27 "Hg10 mi
Weather by CustomWeather, © 2019

See weather overview